Regional Weather Roundup
Issued by NWS

Home | Current Version | Previous Version | Text Only | Print | Product List | Glossary Off
Versions: 1 2 3 4 5 6 7 8 9 10 11 12 13 14 15 16 17 18 19 20 21 22 23 24 25 26 27 28 29 30 31 32 33 34 35 36 37 38 39 40 41 42 43 44 45 46 47 48 49 50

127
ASUS45 KPSR 240710
RWRAZ

ARIZONA HOURLY REGIONAL WEATHER ROUNDUP
NATIONAL WEATHER SERVICE PHOENIX AZ
1200 AM MST TUE JAN 24 2017

NOTE: FAIR INDICATES FEW OR NO CLOUDS BELOW 12,000 FEET WITH NO
SIGNIFICANT WEATHER AND/OR OBSTRUCTIONS TO VISIBILITY.

AZZ001>003-036-240800-
NORTHWEST ARIZONA

CITY           SKY/WX    TMP DP  RH WIND       PRES   REMARKS
BULLHEAD CITY  CLEAR     46  37  71 SE3       29.78R
KINGMAN        PTCLDY    36  31  82 SW10      29.74R WCI  28
$$

AZZ004>008-015-016-018-240800-
NORTH CENTRAL ARIZONA

CITY           SKY/WX    TMP DP  RH WIND       PRES   REMARKS
GRAND CANYON   HVY SNOW  25  24  96 SW8       29.65S VSB 1/4 WCI  16
WILLIAMS       CLOUDY    25  23  93 W9G17     29.65F WCI  15
PRESCOTT       LGT SNOW  32  30  92 SW13      29.70R FOG     WCI  22
FLAGSTAFF      LGT SNOW  25  23  92 SW9       29.63F FOG     WCI  15
PAYSON         LGT SNOW  32  32 100 W9G15     29.75S WCI  24
PAGE           CLOUDY    37  28  70 CALM      29.62S
$$

AZZ009>014-017-240800-
NORTHEAST ARIZONA

CITY           SKY/WX    TMP DP  RH WIND       PRES   REMARKS
WINSLOW        CLOUDY    35  31  85 VRB6      29.68F WCI  30
SAINT JOHNS    LGT SNOW  33  33 100 W8        29.68F FOG     WCI  26
SHOW LOW       LGT SNOW  28  27  93 SW5       29.69F WCI  23
$$

AZZ023-240800-
GREATER PHOENIX AREA

CITY           SKY/WX    TMP DP  RH WIND       PRES   REMARKS
PHOENIX        CLOUDY    49  42  77 CALM      29.79S
BUCKEYE        MOCLDY    46  46 100 SW12      29.81S
LUKE AFB       CLOUDY    48  45  90 SW10      29.77S
DEER VALLEY    CLOUDY    46  44  93 S5        29.78F
SCOTTSDALE     CLOUDY    47  43  86 CALM      29.80F
MESA-GATEWAY   MOCLDY    46  45  93 SE7       29.82R
$$

AZZ027-028-240800-
SOUTHWEST MARICOPA COUNTY AND PINAL COUNTY

CITY           SKY/WX    TMP DP  RH WIND       PRES   REMARKS
CASA GRANDE    LGT RAIN  48  43  82 SW9       29.83S
GILA BEND      MOCLDY    50  39  65 SW14      29.82R
$$

AZZ503-504-507>509-240800-
SOUTHEAST ARIZONA

CITY           SKY/WX    TMP DP  RH WIND       PRES   REMARKS
TUCSON         RAIN      46  43  89 NW14G22   29.86R
DAVIS-MONTHAN  RAIN      45  45 100 W14G20    29.85R
NOGALES        MOCLDY    44  37  76 S18G30    29.85S
SIERRA VISTA   PTCLDY    44  33  66 SW23G38   29.82R
DOUGLAS        PTCLDY    48  39  71 W18G25    29.81R
SAFFORD        CLOUDY    46  40  79 NW18      29.72R
$$

AZZ020-021-025-026-031-240800-
SOUTHWEST ARIZONA

CITY           SKY/WX    TMP DP  RH WIND       PRES   REMARKS
YUMA           CLEAR     50  36  58 NW6       29.85S
$$

CAZ031-033-041-043-047-048-061-240800-
SOUTHERN CALIFORNIA

CITY           SKY/WX    TMP DP  RH WIND       PRES   REMARKS
DOWNTOWN L.A.  CLEAR     46  41  82 CALM      29.91R
L.A. AIRPORT   PTCLDY    49  38  65 N6        29.91R
SAN DIEGO      LGT RAIN  53  41  63 W9        29.96R
BURBANK        CLEAR     42  36  79 NW3       29.89R
ONTARIO        MOCLDY    44  43  96 NE5       29.90R
RIVERSIDE      CLOUDY    44  44 100 W3        29.90R
PALM SPRINGS   CLEAR     42  40  92 SW6       29.84R
EL CENTRO NAS  PTCLDY    48  36  63 CALM      29.88R
IMPERIAL       CLEAR     47  37  68 W9        29.85S
BLYTHE         CLEAR     48  40  73 SW7       29.82S
NEEDLES        CLEAR     49  35  58 W10       29.78R
$$

NVZ020-UTZ003-240800-
SOUTHERN NEVADA-UTAH

CITY           SKY/WX    TMP DP  RH WIND       PRES   REMARKS
LAS VEGAS      MOCLDY    43  31  62 S6        29.72R
SALT LAKE CITY FLURRIES  32  26  78 NE6       29.64R WCI  26
$$

NMZ009-TXZ055-240800-
NEW MEXICO-WEST TEXAS

CITY           SKY/WX    TMP DP  RH WIND       PRES   REMARKS
ALBUQUERQUE    MOCLDY    39  33  79 W10       29.65S WCI  32
EL PASO        CLEAR     60  26  27 SW17G35   29.70F
$$


........................KEY........................
SKY/WX - SKY CONDITION/WEATHER
TMP    - TEMPERATURE IN FAHRENHEIT
DP     - DEW POINT IN FAHRENHEIT
RH     - RELATIVE HUMIDITY IN PERCENT
WIND   - DIRECTION AND SPEED IN MILES PER HOUR (MPH)
VRB    - VARIABLE WIND DIRECTION
PRES   - MEAN SEA LEVEL PRESSURE IN INCHES OF MERCURY
         F - FALLING PRESSURE   R - RISING PRESSURE
         S - STEADY PRESSURE
VSB    - VISIBILITY IN MILES
HX     - HEAT INDEX IN FAHRENHEIT
WCI    - WIND CHILL INDEX IN FAHRENHEIT
TC     - TEMPERATURE IN CELSIUS WHICH IS ALSO KNOWN AS
         TEMPERATURE IN CENTIGRADE
AFB    - AIR FORCE BASE
         LUKE AFB IS LUKE AIR FORCE BASE
         DAVIS-MONTHAN IS DAVIS-MONTHAN AIR FORCE BASE
NAS    - NAVAL AIR STATION
         EL CENTRO NAS IS EL CENTRO NAVAL AIR STATION
N/A    - NOT AVAILABLE





USA.gov is the U.S. government's official web portal to all federal, state and local government web resources and services.